User: anonymous   Login
Location: Unspecified
(0.0000°N, 0.0000°E)
Time: 05:21:46
(UTC+00:00)
Language:

Gonets-D1 - Orbit

View from above orbital plane
View from above orbital plane
View from above satellite
View from above satellite

Ground track
Ground track

The orbit data is extracted from the following two-line orbital elements,

1 24725U 97006A   18146.60422878 +.00000010 +00000-0 -61423-6 0  9993
2 24725 082.6075 345.1029 0008577 304.2409 055.7869 12.60668084978930
Epoch (UTC): 26 May 2018 14:30:05
Eccentricity: 0.0008577
inclination: 82.6075°
perigee height: 1413 km
apogee height: 1427 km
right ascension of ascending node: 345.1029°
argument of perigee: 304.2409°
revolutions per day: 12.60668084
mean anomaly at epoch: 55.7869°
orbit number at epoch: 97893

The dashed part of the orbit path shows where the satellite is in the earth's shadow,  

DLR